• în Republica Moldova
  • Lista ţărilor
  • Pe 7 zile
  • Temperatura apei
  • Hartă satelitară
  • Meteo pe hartă
  • Widget-uri
  • user-avatar
    Intrare

    Meteo pe oră la Baku

    Astăzi, 29 Mai, Luni

    Timp Temperatura Precipitaţii Vânt Presiune Umiditate
    00:00 +20°C° 0 mm 4 m/s 761 mmHg 58%
    01:00 +20°C° 0 mm 4 m/s 761 mmHg 57%
    02:00 +19°C° 0 mm 4 m/s 761 mmHg 56%
    03:00 +19°C° 0 mm 3 m/s 762 mmHg 57%
    04:00 +20°C° 0 mm 3 m/s 762 mmHg 55%
    05:00 +21°C° 0 mm 3 m/s 762 mmHg 53%
    06:00 +21°C° 0 mm 3 m/s 763 mmHg 51%
    07:00 +22°C° 0 mm 3 m/s 763 mmHg 50%
    08:00 +25°C° 0 mm 4 m/s 763 mmHg 48%
    09:00 +26°C° 0 mm 4 m/s 763 mmHg 47%
    10:00 +26°C° 0 mm 5 m/s 764 mmHg 47%
    11:00 +26°C° 0 mm 5 m/s 764 mmHg 48%
    12:00 +26°C° 0 mm 6 m/s 764 mmHg 48%
    13:00 +26°C° 0 mm 6 m/s 764 mmHg 49%
    14:00 +26°C° 0 mm 6 m/s 764 mmHg 51%
    15:00 +26°C° 0 mm 5 m/s 764 mmHg 52%
    16:00 +25°C° 0 mm 5 m/s 764 mmHg 56%
    17:00 +23°C° 0 mm 4 m/s 764 mmHg 60%
    18:00 +22°C° 0 mm 4 m/s 764 mmHg 63%
    19:00 +21°C° 0 mm 3 m/s 764 mmHg 67%
    20:00 +21°C° 0 mm 3 m/s 764 mmHg 70%
    21:00 +20°C° 0 mm 2 m/s 765 mmHg 73%
    22:00 +20°C° 0 mm 2 m/s 764 mmHg 74%
    23:00 +20°C° 0 mm 2 m/s 764 mmHg 74%

    Mâine, 30 Mai, Marţi

    Timp Temperatura Precipitaţii Vânt Presiune Umiditate
    00:00 +19°C° 0 mm 2 m/s 764 mmHg 75%
    01:00 +19°C° 0 mm 2 m/s 764 mmHg 74%
    02:00 +19°C° 0 mm 2 m/s 763 mmHg 73%
    03:00 +19°C° 0 mm 2 m/s 763 mmHg 73%
    04:00 +19°C° 0 mm 3 m/s 763 mmHg 70%
    05:00 +20°C° 0 mm 3 m/s 763 mmHg 68%
    06:00 +20°C° 0 mm 4 m/s 763 mmHg 65%
    07:00 +22°C° 0 mm 4 m/s 762 mmHg 60%
    08:00 +23°C° 0 mm 5 m/s 762 mmHg 56%
    09:00 +25°C° 0 mm 5 m/s 762 mmHg 51%
    10:00 +26°C° 0 mm 6 m/s 761 mmHg 48%
    11:00 +27°C° 0 mm 6 m/s 761 mmHg 45%
    12:00 +28°C° 0 mm 7 m/s 760 mmHg 42%
    13:00 +28°C° 0 mm 7 m/s 760 mmHg 41%
    14:00 +28°C° 0 mm 7 m/s 759 mmHg 41%
    15:00 +28°C° 0 mm 8 m/s 759 mmHg 40%
    16:00 +28°C° 0 mm 8 m/s 758 mmHg 42%
    17:00 +27°C° 0 mm 7 m/s 758 mmHg 44%
    18:00 +26°C° 0 mm 7 m/s 758 mmHg 46%
    19:00 +24°C° 0 mm 6 m/s 758 mmHg 49%
    20:00 +23°C° 0 mm 5 m/s 758 mmHg 53%
    21:00 +22°C° 0 mm 4 m/s 758 mmHg 56%
    22:00 +22°C° 0 mm 3 m/s 758 mmHg 57%
    23:00 +22°C° 0 mm 3 m/s 758 mmHg 58%

    Poimâine, 31 Mai, Miercuri

    Timp Temperatura Precipitaţii Vânt Presiune Umiditate
    00:00 +23°C° 0 mm 2 m/s 758 mmHg 59%
    01:00 +21°C° 0 mm 2 m/s 758 mmHg 62%
    02:00 +21°C° 0 mm 3 m/s 757 mmHg 65%
    03:00 +20°C° 0 mm 3 m/s 757 mmHg 67%
    04:00 +21°C° 0 mm 3 m/s 757 mmHg 67%
    05:00 +21°C° 0 mm 3 m/s 757 mmHg 67%
    06:00 +21°C° 0 mm 4 m/s 757 mmHg 67%
    07:00 +22°C° 0 mm 4 m/s 758 mmHg 62%
    08:00 +23°C° 0 mm 5 m/s 758 mmHg 58%
    09:00 +25°C° 0 mm 5 m/s 758 mmHg 53%
    10:00 +26°C° 0 mm 5 m/s 758 mmHg 50%
    11:00 +27°C° 0 mm 6 m/s 757 mmHg 47%
    12:00 +28°C° 0 mm 6 m/s 757 mmHg 44%
    13:00 +27°C° 0 mm 6 m/s 757 mmHg 44%
    14:00 +27°C° 0 mm 6 m/s 756 mmHg 44%
    15:00 +27°C° 0 mm 7 m/s 756 mmHg 44%
    16:00 +26°C° 0 mm 7 m/s 756 mmHg 47%
    17:00 +24°C° 0 mm 7 m/s 755 mmHg 50%
    18:00 +23°C° 0 mm 8 m/s 755 mmHg 52%
    19:00 +23°C° 0 mm 8 m/s 755 mmHg 54%
    20:00 +22°C° 0 mm 8 m/s 756 mmHg 55%
    21:00 +22°C° 0 mm 9 m/s 756 mmHg 56%
    22:00 +22°C° 0,1 mm 9 m/s 756 mmHg 56%
    23:00 +22°C° 0,1 mm 8 m/s 755 mmHg 57%

    1 Iunie, Joi

    Timp Temperatura Precipitaţii Vânt Presiune Umiditate
    00:00 +22°C° 0,1 mm 8 m/s 755 mmHg 58%
    01:00 +22°C° 0,2 mm 8 m/s 755 mmHg 59%
    02:00 +21°C° 0,2 mm 7 m/s 755 mmHg 61%
    03:00 +21°C° 0,2 mm 7 m/s 755 mmHg 63%
    04:00 +21°C° 0 mm 7 m/s 755 mmHg 61%
    05:00 +22°C° 0 mm 7 m/s 755 mmHg 60%
    06:00 +22°C° 0 mm 7 m/s 755 mmHg 58%
    07:00 +23°C° 0 mm 7 m/s 755 mmHg 55%
    08:00 +24°C° 0 mm 7 m/s 755 mmHg 52%
    09:00 +26°C° 0 mm 8 m/s 756 mmHg 49%
    10:00 +26°C° 0 mm 8 m/s 756 mmHg 49%
    11:00 +26°C° 0 mm 9 m/s 755 mmHg 48%
    12:00 +27°C° 0 mm 9 m/s 755 mmHg 48%
    13:00 +26°C° 0 mm 9 m/s 755 mmHg 50%
    14:00 +26°C° 0 mm 10 m/s 755 mmHg 52%
    15:00 +24°C° 0 mm 10 m/s 755 mmHg 54%
    16:00 +24°C° 0 mm 10 m/s 755 mmHg 56%
    17:00 +23°C° 0 mm 10 m/s 756 mmHg 58%
    18:00 +22°C° 0 mm 10 m/s 756 mmHg 60%
    19:00 +22°C° 0 mm 9 m/s 756 mmHg 61%
    20:00 +22°C° 0 mm 8 m/s 756 mmHg 61%
    21:00 +22°C° 0 mm 7 m/s 757 mmHg 62%
    22:00 +22°C° 0 mm 6 m/s 757 mmHg 61%
    23:00 +22°C° 0 mm 5 m/s 757 mmHg 61%

    2 Iunie, Vineri

    Timp Temperatura Precipitaţii Vânt Presiune Umiditate
    00:00 +22°C° 0 mm 4 m/s 757 mmHg 60%
    01:00 +22°C° 0 mm 3 m/s 757 mmHg 59%
    02:00 +21°C° 0 mm 3 m/s 757 mmHg 58%
    03:00 +21°C° 0 mm 3 m/s 757 mmHg 57%
    04:00 +22°C° 0 mm 3 m/s 757 mmHg 54%
    05:00 +24°C° 0 mm 3 m/s 758 mmHg 52%
    06:00 +24°C° 0 mm 3 m/s 758 mmHg 49%
    07:00 +25°C° 0 mm 4 m/s 758 mmHg 46%
    08:00 +27°C° 0 mm 4 m/s 758 mmHg 43%
    09:00 +28°C° 0 mm 5 m/s 759 mmHg 39%
    10:00 +28°C° 0 mm 5 m/s 758 mmHg 39%
    11:00 +29°C° 0 mm 5 m/s 758 mmHg 39%
    12:00 +29°C° 0 mm 5 m/s 758 mmHg 39%
    13:00 +29°C° 0 mm 5 m/s 758 mmHg 41%
    14:00 +28°C° 0 mm 6 m/s 758 mmHg 44%
    15:00 +28°C° 0 mm 6 m/s 758 mmHg 46%
    16:00 +27°C° 0 mm 5 m/s 758 mmHg 50%
    17:00 +26°C° 0 mm 4 m/s 758 mmHg 54%
    18:00 +25°C° 0 mm 3 m/s 758 mmHg 57%
    19:00 +25°C° 0 mm 3 m/s 759 mmHg 60%
    20:00 +24°C° 0 mm 2 m/s 759 mmHg 62%
    21:00 +24°C° 0 mm 1 m/s 759 mmHg 64%
    22:00 +24°C° 0 mm 2 m/s 759 mmHg 64%
    23:00 +24°C° 0 mm 2 m/s 759 mmHg 64%

    3 Iunie, Sâmbătă

    Timp Temperatura Precipitaţii Vânt Presiune Umiditate
    00:00 +23°C° 0 mm 2 m/s 759 mmHg 65%
    01:00 +23°C° 0 mm 2 m/s 759 mmHg 64%
    02:00 +23°C° 0 mm 2 m/s 759 mmHg 64%
    03:00 +23°C° 0 mm 2 m/s 759 mmHg 64%
    04:00 +24°C° 0 mm 3 m/s 759 mmHg 61%
    05:00 +24°C° 0 mm 3 m/s 760 mmHg 59%
    06:00 +25°C° 0 mm 3 m/s 760 mmHg 57%
    07:00 +26°C° 0 mm 4 m/s 761 mmHg 55%
    08:00 +27°C° 0 mm 5 m/s 761 mmHg 52%
    09:00 +27°C° 0 mm 5 m/s 761 mmHg 50%
    10:00 +27°C° 0 mm 6 m/s 761 mmHg 51%
    11:00 +28°C° 0 mm 6 m/s 761 mmHg 51%
    12:00 +28°C° 0 mm 6 m/s 761 mmHg 52%
    13:00 +27°C° 0 mm 6 m/s 761 mmHg 53%
    14:00 +27°C° 0 mm 5 m/s 761 mmHg 55%
    15:00 +27°C° 0 mm 5 m/s 760 mmHg 56%
    16:00 +26°C° 0 mm 5 m/s 761 mmHg 59%
    17:00 +25°C° 0 mm 5 m/s 761 mmHg 62%
    18:00 +25°C° 0 mm 4 m/s 761 mmHg 65%
    19:00 +23°C° 0 mm 4 m/s 761 mmHg 67%
    20:00 +23°C° 0 mm 4 m/s 761 mmHg 70%
    21:00 +22°C° 0 mm 4 m/s 762 mmHg 72%
    22:00 +22°C° 0 mm 4 m/s 761 mmHg 72%
    23:00 +22°C° 0 mm 4 m/s 761 mmHg 73%
    Arată mai mult